Location: Huisseau
(47.5933°N, 1.4533°E)
Time: 04:47:37
(UTC+00:00)

ARIANE 6 FM1 Upper Stage - Visible Passes

Search period start: 18 January 2026 00:00
Search period end: 28 January 2026 00:00
Orbit: 522 x 610 km, 62.0° (Epoch: 17 January)

Date Brightness Start Highest point End Pass type
(mag) Time Alt. Az. Time Alt. Az. Time Alt. Az.
20 Jan 4.7 19:11:40 10° SSW 19:12:50 18° SSW 19:12:50 18° SSW visible
21 Jan 4.1 19:11:40 10° SSW 19:13:49 30° SSW 19:13:49 30° SSW visible
22 Jan 4.6 17:35:39 10° SE 17:37:25 13° ESE 17:38:39 11° E visible
22 Jan 3.4 19:11:47 10° SW 19:14:43 46° SW 19:14:43 46° SW visible
23 Jan 4.2 17:34:36 10° SSE 17:37:25 18° ESE 17:39:27 13° E visible
23 Jan 3.2 19:12:02 10° SW 19:15:30 55° W 19:15:30 55° W visible
24 Jan 3.8 17:34:03 10° S 17:37:26 26° ESE 17:40:10 13° ENE visible
24 Jan 3.4 19:12:23 10° WSW 19:16:12 45° NW 19:16:12 45° NW visible
25 Jan 3.3 17:33:45 10° SSW 17:37:31 37° SE 17:40:47 13° ENE visible
25 Jan 3.9 19:12:50 10° WSW 19:16:33 34° NW 19:16:49 33° NNW visible
26 Jan 2.8 17:33:38 10° SSW 17:37:37 53° SE 17:41:20 11° NE visible
26 Jan 4.2 19:13:23 10° W 19:16:51 27° NNW 19:17:22 26° NNW visible
27 Jan 2.6 17:33:40 10° SW 17:37:44 77° SE 17:41:44 10° NE visible
27 Jan 4.5 19:14:01 10° W 19:17:10 22° NNW 19:17:51 21° NNW visible
